Regional Weather Roundup
Issued by NWS

Home | Current Version | Previous Version | Graphics & Text | Print | Product List | Glossary On
Versions: 1 2 3 4 5 6 7 8 9 10 11 12 13 14 15 16 17 18 19 20 21 22 23 24 25 26 27 28 29 30 31 32 33 34 35 36 37 38 39 40 41 42 43 44 45 46 47 48 49 50
777
ASUS45 KBOI 040510
RWRID

IDAHO REGIONAL WEATHER ROUNDUP
NATIONAL WEATHER SERVICE BOISE ID
1100 PM MDT TUE MAY 03 2016

NOTE: "FAIR" INDICATES FEW OR NO CLOUDS BELOW 12000 FEET
WITH NO SIGNIFICANT WEATHER AND/OR OBSTRUCTIONS TO VISIBILITY

IDZ012-014-040600-
SOUTHWEST IDAHO


CITY           SKY/WX    TMP DP  RH WIND       PRES   REMARKS
BOISE          PTCLDY    69  31  24 SE7       30.01S
CALDWELL       PTCLDY    59  39  47 CALM      29.99S
MOUNTAIN HOME  PTCLDY    65  33  30 E9        30.01F
$$

IDZ016-017-040600-
SOUTHCENTRAL IDAHO


CITY           SKY/WX    TMP DP  RH WIND       PRES   REMARKS
BURLEY         CLEAR     55  31  39 S9        30.12R
JEROME         CLEAR     56  30  37 E10       30.10S
TWIN FALLS     CLEAR     58  22  24 S15       30.09S
$$

IDZ019>023-040600-
SOUTHEAST IDAHO


CITY           SKY/WX    TMP DP  RH WIND       PRES   REMARKS
IDAHO FALLS    CLEAR     51  35  54 CALM      30.18R
POCATELLO      CLEAR     51  39  63 E3        30.16S
REXBURG        CLEAR     55  30  38 CALM      30.17S
$$

IDZ006-010-011-018-031-032-040600-
CENTRAL IDAHO MOUNTAINS


CITY           SKY/WX    TMP DP  RH WIND       PRES   REMARKS
MCCALL         CLEAR     51  38  60 N6        30.13R
HAILEY         CLEAR     48  36  61 W7        30.21R
STANLEY          N/A     45  26  47 SE5       30.24R
SALMON         CLEAR     55  30  38 CALM      30.06R
CHALLIS        CLEAR     52  23  32 NW7       30.15R
$$

IDZ002-004-006-007-026-040600-
NORTHERN IDAHO


CITY           SKY/WX    TMP DP  RH WIND       PRES   REMARKS
LEWISTON       PTCLDY    69  44  40 W3        29.91S
LOWELL           N/A     58  51  78 CALM      29.98R
COEUR D`ALENE  PTCLDY    61  45  55 CALM      29.94S
MULLAN PASS    CLEAR     55  31  39 NW7       30.14S
$$




USA.gov is the U.S. government's official web portal to all federal, state and local government web resources and services.